TimeEST,TemperatureF,Dew PointF,Humidity,Sea Level PressureIn,VisibilityMPH,Wind Direction,Wind SpeedMPH,Gust SpeedMPH,PrecipitationIn,Events,Conditions,WindDirDegrees,DateUTC
12:55 AM,30.2,26.6,86,30.29,10.0,West,5.8,-,N/A,,Scattered Clouds,270,2013-01-18 05:55:00
1:15 AM,30.2,26.6,86,30.31,10.0,WSW,5.8,-,N/A,,Partly Cloudy,250,2013-01-18 06:15:00
1:35 AM,28.4,26.6,93,30.32,10.0,West,4.6,-,N/A,,Partly Cloudy,260,2013-01-18 06:35:00
1:55 AM,28.4,26.6,93,30.32,10.0,WSW,4.6,-,N/A,,Partly Cloudy,250,2013-01-18 06:55:00
2:15 AM,28.4,24.8,86,30.34,10.0,West,4.6,-,N/A,,Clear,260,2013-01-18 07:15:00
2:35 AM,28.4,26.6,93,30.35,10.0,West,3.5,-,N/A,,Clear,280,2013-01-18 07:35:00
2:55 AM,26.6,24.8,93,30.35,10.0,Calm,Calm,-,N/A,,Clear,0,2013-01-18 07:55:00
3:15 AM,26.6,24.8,93,30.35,10.0,WNW,3.5,-,N/A,,Clear,290,2013-01-18 08:15:00
3:35 AM,26.6,24.8,93,30.36,10.0,WNW,4.6,-,N/A,,Clear,290,2013-01-18 08:35:00
3:55 AM,24.8,24.8,100,30.36,10.0,NW,4.6,-,N/A,,Clear,310,2013-01-18 08:55:00
4:15 AM,24.8,24.8,100,30.36,10.0,WNW,5.8,-,N/A,,Partly Cloudy,300,2013-01-18 09:15:00
4:35 AM,24.8,24.8,100,30.36,10.0,West,4.6,-,N/A,,Scattered Clouds,280,2013-01-18 09:35:00
4:55 AM,26.6,26.6,100,30.37,10.0,West,5.8,-,N/A,,Mostly Cloudy,270,2013-01-18 09:55:00
5:15 AM,28.4,26.6,93,30.37,10.0,West,4.6,-,N/A,,Overcast,260,2013-01-18 10:15:00
5:35 AM,28.4,26.6,93,30.37,10.0,WSW,4.6,-,N/A,,Overcast,250,2013-01-18 10:35:00
5:55 AM,28.4,26.6,93,30.38,10.0,WSW,5.8,-,N/A,,Overcast,240,2013-01-18 10:55:00
6:15 AM,26.6,26.6,100,30.38,10.0,WSW,5.8,-,N/A,,Overcast,250,2013-01-18 11:15:00
6:35 AM,26.6,24.8,93,30.39,10.0,West,5.8,-,N/A,,Mostly Cloudy,270,2013-01-18 11:35:00
6:55 AM,26.6,24.8,93,30.40,10.0,West,4.6,-,N/A,,Mostly Cloudy,260,2013-01-18 11:55:00
7:15 AM,26.6,24.8,93,30.41,10.0,SW,5.8,-,N/A,,Scattered Clouds,230,2013-01-18 12:15:00
7:35 AM,26.6,24.8,93,30.41,9.0,WSW,3.5,-,N/A,,Clear,240,2013-01-18 12:35:00
7:55 AM,26.6,24.8,93,30.41,8.0,Calm,Calm,-,N/A,,Partly Cloudy,0,2013-01-18 12:55:00
8:15 AM,26.6,24.8,93,30.43,6.0,Calm,Calm,-,N/A,,Partly Cloudy,0,2013-01-18 13:15:00
8:35 AM,26.6,24.8,93,30.45,6.0,West,3.5,-,N/A,,Partly Cloudy,260,2013-01-18 13:35:00
8:55 AM,26.6,24.8,93,30.46,7.0,West,8.1,-,N/A,,Mostly Cloudy,280,2013-01-18 13:55:00
9:15 AM,26.6,24.8,93,30.47,6.0,WNW,4.6,-,N/A,,Overcast,300,2013-01-18 14:15:00
9:35 AM,26.6,24.8,93,30.48,8.0,WNW,3.5,-,N/A,,Overcast,300,2013-01-18 14:35:00
9:55 AM,28.4,26.6,93,30.50,9.0,NW,3.5,-,N/A,,Overcast,310,2013-01-18 14:55:00
10:15 AM,28.4,26.6,93,30.50,9.0,NW,3.5,-,N/A,,Overcast,320,2013-01-18 15:15:00
10:35 AM,30.2,26.6,86,30.50,9.0,Variable,3.5,-,N/A,,Overcast,0,2013-01-18 15:35:00
10:55 AM,30.2,26.6,86,30.51,10.0,WSW,4.6,-,N/A,,Mostly Cloudy,250,2013-01-18 15:55:00
11:15 AM,33.8,26.6,75,30.50,10.0,SW,4.6,-,N/A,,Mostly Cloudy,230,2013-01-18 16:15:00
11:35 AM,33.8,24.8,70,30.49,10.0,SW,3.5,-,N/A,,Mostly Cloudy,230,2013-01-18 16:35:00
11:55 AM,33.8,24.8,70,30.49,10.0,Calm,Calm,-,N/A,,Scattered Clouds,0,2013-01-18 16:55:00
12:15 PM,35.6,24.8,65,30.48,10.0,Calm,Calm,-,N/A,,Partly Cloudy,0,2013-01-18 17:15:00
12:35 PM,35.6,24.8,65,30.47,10.0,Calm,Calm,-,N/A,,Clear,0,2013-01-18 17:35:00
12:55 PM,33.8,24.8,70,30.47,10.0,NNE,3.5,-,N/A,,Clear,20,2013-01-18 17:55:00
1:15 PM,37.4,26.6,65,30.46,10.0,Calm,Calm,-,N/A,,Clear,0,2013-01-18 18:15:00
1:35 PM,35.6,24.8,65,30.46,10.0,Calm,Calm,-,N/A,,Clear,0,2013-01-18 18:35:00
1:55 PM,37.4,24.8,60,30.46,10.0,Calm,Calm,-,N/A,,Clear,0,2013-01-18 18:55:00
2:15 PM,37.4,23.0,56,30.46,10.0,Calm,Calm,-,N/A,,Clear,0,2013-01-18 19:15:00
2:35 PM,37.4,26.6,65,30.46,10.0,WNW,5.8,-,N/A,,Clear,300,2013-01-18 19:35:00
2:55 PM,37.4,28.4,70,30.46,10.0,WNW,6.9,-,N/A,,Clear,300,2013-01-18 19:55:00
3:15 PM,39.2,26.6,61,30.46,10.0,West,4.6,-,N/A,,Clear,260,2013-01-18 20:15:00
3:35 PM,37.4,28.4,70,30.46,10.0,WNW,5.8,-,N/A,,Clear,290,2013-01-18 20:35:00
3:55 PM,37.4,28.4,70,30.46,10.0,West,4.6,-,N/A,,Clear,280,2013-01-18 20:55:00
4:15 PM,37.4,28.4,70,30.47,10.0,West,4.6,-,N/A,,Clear,280,2013-01-18 21:15:00
4:35 PM,37.4,28.4,70,30.47,10.0,West,4.6,-,N/A,,Clear,270,2013-01-18 21:35:00
4:55 PM,35.6,28.4,75,30.47,10.0,WSW,4.6,-,N/A,,Clear,240,2013-01-18 21:55:00
5:15 PM,35.6,28.4,75,30.48,10.0,WSW,5.8,-,N/A,,Clear,250,2013-01-18 22:15:00
5:35 PM,33.8,28.4,81,30.48,10.0,West,3.5,-,N/A,,Clear,270,2013-01-18 22:35:00
5:55 PM,32.0,28.4,87,30.48,10.0,Calm,Calm,-,N/A,,Clear,0,2013-01-18 22:55:00
6:15 PM,30.2,28.4,93,30.48,10.0,Calm,Calm,-,N/A,,Clear,0,2013-01-18 23:15:00
6:35 PM,28.4,28.4,100,30.48,9.0,Calm,Calm,-,N/A,,Clear,0,2013-01-18 23:35:00
6:55 PM,28.4,28.4,100,30.48,8.0,Calm,Calm,-,N/A,,Clear,0,2013-01-18 23:55:00
7:15 PM,28.4,26.6,93,30.47,6.0,Calm,Calm,-,N/A,,Clear,0,2013-01-19 00:15:00
7:35 PM,28.4,28.4,100,30.47,9.0,ENE,3.5,-,N/A,,Clear,60,2013-01-19 00:35:00
7:55 PM,28.4,28.4,100,30.47,10.0,East,5.8,-,N/A,,Clear,90,2013-01-19 00:55:00
8:15 PM,28.4,28.4,100,30.46,10.0,ENE,5.8,-,N/A,,Clear,70,2013-01-19 01:15:00
8:35 PM,28.4,28.4,100,30.46,10.0,ENE,6.9,-,N/A,,Clear,60,2013-01-19 01:35:00
8:55 PM,28.4,26.6,93,30.45,10.0,East,9.2,-,N/A,,Clear,90,2013-01-19 01:55:00
9:15 PM,28.4,26.6,93,30.45,10.0,ENE,6.9,-,N/A,,Clear,70,2013-01-19 02:15:00
9:35 PM,28.4,26.6,93,30.44,10.0,NE,5.8,-,N/A,,Clear,50,2013-01-19 02:35:00
9:55 PM,28.4,26.6,93,30.45,10.0,NNE,5.8,-,N/A,,Clear,30,2013-01-19 02:55:00
10:15 PM,28.4,26.6,93,30.44,10.0,Calm,Calm,-,N/A,,Clear,0,2013-01-19 03:15:00
10:35 PM,28.4,26.6,93,30.43,10.0,NE,4.6,-,N/A,,Clear,50,2013-01-19 03:35:00
10:55 PM,28.4,26.6,93,30.43,10.0,ENE,4.6,-,N/A,,Clear,60,2013-01-19 03:55:00
11:15 PM,28.4,26.6,93,30.43,10.0,ENE,3.5,-,N/A,,Clear,60,2013-01-19 04:15:00
11:35 PM,28.4,26.6,93,30.42,10.0,ENE,3.5,-,N/A,,Clear,60,2013-01-19 04:35:00
11:55 PM,28.4,26.6,93,30.41,10.0,NE,5.8,-,N/A,,Clear,50,2013-01-19 04:55:00